sat.trackr.live / text

‹ back to catalog

ONEWEB-0405

NORAD 50485 · 2021-132S

PAYLOAD ACTIVE UNKNOWN

§ Identity

Operator
Country
UK
Launch date
2021-12-27
Launch site
TYMSC
Launch vehicle
Mass (kg)
RCS (m²)

Purposes: comms

External: N2YO · Heavens-Above · Gunter

§ Orbital elements

Epoch: 2026-09-20T03:06:05.528160Z

Period
109.20 min
Inclination
87.9172°
Eccentricity
0.0001381
Mean motion
13.18685491 rev/d
Perigee alt
1,188.7 km
Apogee alt
1,190.8 km
Semi-major
7,567.9 km
B*
6.6785e-5
RAAN
316.5823°
Arg perigee
99.5595°
Mean anomaly
260.5693°
Rev number
23,450

§ Raw data

ONEWEB-04051 50485U 21132S   26263.12923065  .00000039  00000+0  66785-4 0  99952 50485  87.9172 316.5823 0001381  99.5595 260.5693 13.18685491234502

JSON: /api/v1/satellites/50485 · /tle

For live sub-satellite position, see the globe view (requires WebGL).

§ Visibility from observer

Set your observer location to see the next 7 days of passes ≥ 10°. The values pass through the URL so the page stays shareable.

No JS? Fill the form by hand. The geolocation button needs JavaScript.